Location: Palomar Mountain Lodge
(33.3110°N, 116.8495°W)
Time: 06:45:44
(UTC-07:00)

Lacrosse 5 - Pass Details

Date: 12 July 2018
Orbit: 713 x 726 km, 57.0° (Epoch: 23 September)

Event Time Altitude Azimuth Distance (km) Brightness Sun altitude
Rises 21:11:29 0° 334° (NNW) 3,120 6.4 -13.7°
Reaches altitude 10° 21:14:36 10° 354° (N) 2,200 5.0 -14.2°
Maximum altitude 21:18:02 18° 37° (NE) 1,720 3.9 -14.7°
Enters shadow 21:21:26 10° 79° (E) 2,189 4.0 -15.3°
